Tracking 19574 objects as of 16-Feb-2019
HD Live streaming from Space Station
objects crossing your sky now

SAKURA 2A (CS-2A)

Track SAKURA 2A (CS-2A) now!
SAKURA 2A (CS-2A) is classified as:


NORAD ID: 13782
Int'l Code: 1983-006A
Perigee: 35,986.8 km
Apogee: 36,090.9 km
Inclination: 14.3 °
Period: 1,448.6 minutes
Semi major axis: 42409 km
RCS: 5.8102 m2 (large)
Launch date: February 4, 1983
Source: Japan (JPN)
Launch site: TANEGASHIMA SPACE CENTER (TNSTA)
aabbcc
Your satellite tracking list
Your tracking list is empty




NASA's NSSDC Master Catalog

Two Line Element Set (TLE):
1 13782U 83006A   19046.92334667  .00000085  00000-0  00000+0 0  9990
2 13782  14.3091 342.6569 0012273 289.8135 252.5715  0.99403809101266
Source of the keplerian elements: AFSPC